Weather Roundup
Issued by NWS

Home | Current Version | Previous Version | Graphics & Text | Print | Product List | Glossary Off
Versions: 1 2 3 4 5 6 7 8 9 10 11 12 13 14 15 16 17 18 19 20 21 22 23 24 25 26 27 28 29 30 31 32 33 34 35 36 37 38 39 40 41 42 43 44 45 46 47 48 49 50

296
NZUS93 KARX 251459
HRRWXR

CURRENT HOURLY OBSERVATIONS ACROSS
MUCH OF THE UPPER MISSISSIPPI VALLEY
NATIONAL WEATHER SERVICE LA CROSSE WI
1000 AM CDT TUE APR 25 2017


...SOUTHEAST MINNESOTA...


CITY           SKY/WX    TMP DP  RH WIND       PRES   REMARKS
ROCHESTER      CLOUDY    63  41  44 S12       29.55S
ROCHESTER/MAYO FAIR      63  39  41 S6        29.54F
WINONA         MOSUNNY   70  41  35 S7        29.55S
AUSTIN         CLOUDY    61  43  51 S8        29.53F
ALBERT LEA     PTSUNNY   54  43  66 N3        29.53F
DODGE CENTER   PTSUNNY   61  41  48 SW12      29.54S
PRESTON        MOSUNNY   61  40  45 S9        29.55F
OWATONNA       CLOUDY    52  45  76 W5        29.55S
FARIBAULT      CLOUDY    48  45  87 W6        29.55S
$$

...ELSEWHERE IN MINNESOTA...


CITY           SKY/WX    TMP DP  RH WIND       PRES   REMARKS
MINNEAPOLIS    CLOUDY    53  45  74 S7        29.54R
INTNL FALLS    CLOUDY    33  30  88 N9G21     29.71R WCI  25
DULUTH         CLOUDY    50  43  77 E12       29.57F
RED WING       PTSUNNY   64  36  34 SE3       29.53S
REDWOOD FALLS  CLOUDY    40  37  89 NW12G20   29.59R WCI  33
MANKATO        CLOUDY    42  40  92 NW8       29.56S FOG
WORTHINGTON    CLOUDY    38  37  97 N16       29.60R WCI  29
FAIRMONT       CLOUDY    41  39  93 NW12      29.58R
$$

...SOUTHWEST WISCONSIN...


CITY           SKY/WX    TMP DP  RH WIND       PRES   REMARKS
LA CROSSE      MOSUNNY   67  39  35 S10       29.56F
PRAIRIE DU CHI CLOUDY    63  36  36 SE7       29.58F
BOSCOBEL       MOSUNNY   67  40  37 S7        29.60S
LONE ROCK      NOT AVBL
PLATTEVILLE    SUNNY     64  42  44 S14       29.63S
FORT MC COY    SUNNY     65  37  35 S7        29.60R
MAUSTON-NEW LI SUNNY     65  40  40 S12G20    29.60R
VIROQUA        FAIR      64  37  35 S10       29.60S
WIS DELLS      SUNNY     63  40  42 S12       29.62S
$$

...ELSEWHERE IN WISCONSIN...


CITY           SKY/WX    TMP DP  RH WIND       PRES   REMARKS
MILWAUKEE      MOSUNNY   63  50  62 SE10      29.68F
MADISON        PTSUNNY   65  43  44 S15       29.63S
GREEN BAY      SUNNY     61  50  67 S15       29.68F
EAU CLAIRE     NOT AVBL
BLACK RVR FLS  PTSUNNY   68  33  27 S7        29.57S
MEDFORD        SUNNY     59  39  48 SE10      29.59F
WAUSAU         SUNNY     63  40  42 SE12      29.60F
WIS RAPIDS     NOT AVBL
MARSHFIELD     SUNNY     64  39  39 S12       29.59S
RICE LAKE      MOSUNNY   63  34  33 SE8       29.56R
$$

...NORTHEAST IOWA...


CITY           SKY/WX    TMP DP  RH WIND       PRES   REMARKS
WATERLOO       PTSUNNY   62  42  47 SE9       29.53F
DUBUQUE        PTSUNNY   63  43  48 S12       29.61F
DECORAH        MOSUNNY   63  41  45 S7G14     29.56F
MASON CITY     CLOUDY    59  41  51 SE6       29.51F
CHARLES CITY   CLOUDY    61  39  44 SE9       29.54F
OELWEIN        CLOUDY    63  43  48 S10       29.57S
$$

...ELSEWHERE IN IOWA...


CITY           SKY/WX    TMP DP  RH WIND       PRES   REMARKS
DES MOINES     CLOUDY    59  43  55 E7        29.47F
IOWA CITY      CLOUDY    65  45  48 E8        29.59F
FORT DODGE     CLOUDY    48  39  71 N6        29.54R
MARSHALLTOWN   CLOUDY    60  43  53 S10       29.52S
CEDAR RAPIDS   CLOUDY    62  44  51 S12       29.56F
$$

...NORTHERN ILLINOIS...


CITY           SKY/WX    TMP DP  RH WIND       PRES   REMARKS
CHICAGO-OHARE  PTSUNNY   68  49  50 S10       29.69F
CHICAGO-MIDWAY PTSUNNY   67  51  56 S12       29.71F
MOLINE         MOSUNNY   68  43  40 S8        29.60F
ROCKFORD       PTSUNNY   69  48  47 S14       29.68S
PEORIA         MOSUNNY   68  50  52 S10       29.65F
$$

NOTE: "FAIR" INDICATES FEW OR NO CLOUDS BELOW 12,000 FEET WITH NO
SIGNIFICANT WEATHER AND/OR OBSTRUCTIONS TO VISIBILITY. WIND
SPEEDS ARE IN MILES-PER-HOUR.




USA.gov is the U.S. government's official web portal to all federal, state and local government web resources and services.